Location: Akselwal
(50.8966°N, 3.6368°E)
Time: 10:08:23
(UTC+00:00)

Daily predictions for brighter satellites

Satellite Brightness Start Highest point End
(mag) Time Altitude Azimuth Time Altitude Azimuth Time Altitude Azimuth
Cosmos 2344 4.2 16:19:57 10° NW 16:26:48 39° NNE 16:35:03 10° E
CZ-4C R/B 2.6 16:26:07 10° WSW 16:30:33 51° NW 16:36:19 10° NE
ATLAS 2AS CENTAUR R/B 3.7 16:25:54 10° NW 16:31:47 29° N 16:37:34 10° ENE
Cosmos 2263 Rocket 4.3 16:29:20 10° WNW 16:32:43 16° NNW 16:36:08 10° N
Cosmos 1844 Rocket 3.9 16:29:23 10° WSW 16:34:33 38° NW 16:39:48 10° NNE
UNK 4.3 16:30:15 10° NNE 16:34:35 39° E 16:38:54 10° SSE
Cosmos 1459 Rocket 4.3 16:29:59 10° SSW 16:36:17 78° W 16:42:42 10° N
YAOGAN 1 4.2 16:34:09 10° E 16:36:28 14° ENE 16:38:47 10° NNE
COSMOS 2406 4.3 16:36:17 10° NNW 16:40:55 25° NE 16:45:30 10° E
Cosmos 2084 Rocket 3.4 16:37:42 10° SW 16:41:53 77° SE 16:46:06 10° NE
ATLAS CENTAUR R/B 2.3 16:41:16 10° WSW 16:44:24 31° NW 16:47:32 10° NNE
Cosmos 1441 Rocket 3.6 16:42:12 10° NNW 16:45:29 57° W 16:48:47 10° S
Cosmos 1833 Rocket 3.1 16:40:44 10° NNW 16:46:21 69° WSW 16:51:57 10° SSE
SAR-Lupe-4 3.7 16:43:18 10° SSE 16:46:47 51° ENE 16:50:16 10° N
ARIANE 5 R/B 2.5 16:42:36 10° SE 16:47:28 57° ENE 16:52:22 10° N
Timation 1 Rocket 4.3 16:48:51 10° NNW 16:54:47 64° NE 17:00:42 10° SE
USA 215 3.5 16:48:17 10° SE 16:54:50 74° SW 17:01:24 10° WNW
IRS-P3 4.2 16:53:05 10° SE 16:58:14 53° ENE 17:03:26 10° N
ATLAS 5 CENTAUR R/B 2.8 16:56:01 10° NW 17:00:12 49° SW 17:05:21 10° SSE
MOS 1 Rocket 3.6 16:56:21 10° SE 17:00:22 39° ENE 17:04:36 10° N
Cosmos 1484 Rocket 4.4 17:01:13 10° SSW 17:04:26 34° W 17:07:43 10° NNW
Iridium 4 Rocket 4.4 17:01:53 10° SSW 17:06:43 47° W 17:11:11 10° N
Resurs 01 Rocket 3.4 17:08:57 13° NE 17:08:57 13° NE 17:10:41 10° NNE
SJ-6F 4.4 17:05:00 10° SSE 17:08:48 53° ENE 17:12:39 10° N
RESURS DK-1 2.2 17:04:56 10° NNW 17:08:58 76° ENE 17:12:58 10° SE
Cosmos 2233 Rocket 4.1 17:02:45 10° S 17:09:04 89° ESE 17:15:27 10° N
Cosmos 1602 4.0 17:06:27 10° N 17:09:11 28° ENE 17:11:53 10° SE
Cosmos 407 Rocket 3.7 17:05:08 10° S 17:10:05 48° ESE 17:15:02 10° NNE
Cosmos 1725 Rocket 4.5 17:03:53 10° SSW 17:10:07 66° WNW 17:16:27 10° N
Cosmos 2061 Rocket 4.0 17:05:17 10° S 17:11:35 85° E 17:17:51 10° N
Geosat FO 4.1 17:12:35 10° SE 17:15:23 51° NE 17:18:13 10° NNW
ISS -2.8 17:12:25 10° SW 17:15:30 35° SSE 17:17:12 21° E
Cosmos 1782 Rocket 3.8 17:11:24 10° SSW 17:15:50 72° WNW 17:20:16 10° N
CZ-2D R/B 2.7 17:13:28 10° SSE 17:16:38 86° WSW 17:19:49 10° NNW
Cosmos 1869 3.0 17:14:07 10° S 17:17:33 53° E 17:21:00 10° NNE
ERS-1 4.5 17:13:30 10° SSE 17:18:39 85° ENE 17:23:46 10° NNW
USA 281 4.2 17:15:06 16° E 17:18:55 26° NE 17:24:09 10° NNW
SPOT 1/Viking Rocket 3.7 17:14:28 10° SE 17:19:25 47° ENE 17:24:24 10° N
Cosmos 1300 Rocket 4.1 17:15:42 10° SSW 17:20:02 59° WNW 17:24:22 10° N
COSMO-SKYMED 1 3.6 17:21:26 21° ENE 17:22:11 23° E 17:25:27 10° SE
SJ-12 3.8 17:19:39 10° S 17:23:27 78° WSW 17:27:16 10° NNW
Cosmos 1464 Rocket 4.4 17:19:17 10° SSE 17:25:04 40° E 17:30:48 10° NNE
AQUARIUS 4.1 17:22:50 10° SSE 17:27:15 89° ENE 17:31:42 10° NNW
SL-12 R/B(2) 4.4 17:20:10 10° SSW 17:28:03 65° ESE 17:36:59 12° NE
Cosmos 540 Rocket 3.5 17:23:47 10° NNW 17:28:57 85° WSW 17:34:03 10° SSE
BREEZE-M DEB (TANK) 2.8 17:27:18 10° SW 17:29:45 46° SSE 17:32:21 22° E
Cosmos 1400 Rocket 3.7 17:28:24 10° SSE 17:31:12 25° ESE 17:31:12 25° ESE
Cosmos 1975 Rocket 3.9 17:27:58 10° NNW 17:32:12 54° W 17:36:27 10° S
Spot 4 Rocket 4.1 17:28:16 10° SE 17:33:12 53° ENE 17:38:11 10° N
Cosmos 1763 Rocket 3.9 17:29:12 10° NNW 17:34:24 67° WSW 17:39:29 10° S
Cosmos 1812 1.9 17:34:04 10° S 17:36:55 56° E 17:37:34 42° NE
Cosmos 1140 Rocket 4.1 17:36:57 10° SW 17:42:01 55° WNW 17:47:07 10° NNE
Cosmos 2151 Rocket 3.9 17:37:55 10° SSE 17:42:11 44° E 17:45:29 16° NNE
Cosmos 2058 2.6 17:38:19 10° N 17:42:18 74° ENE 17:46:17 10° SSE
SMAP 4.5 17:39:03 10° SSW 17:43:26 41° W 17:47:52 10° NNW
Cosmos 44 Rocket 3.4 17:40:08 10° SSW 17:44:49 57° SE 17:47:06 29° ENE
SKYMED 2 3.6 17:45:23 14° NNE 17:49:01 57° E 17:53:17 10° S
Cosmos 1943 Rocket 2.1 17:44:14 10° SSW 17:49:51 81° ESE 17:54:09 18° NNE
Helios 1A Rocket 3.7 17:51:57 26° SSE 17:51:57 26° SSE 17:53:47 10° S
Cosmos 1092 Rocket 4.4 17:44:59 10° N 17:50:47 37° ENE 17:54:59 17° SE
Okean 1 Rocket 3.6 17:48:04 10° SSE 17:51:43 36° ESE 17:51:43 36° ESE
SJ-7 4.0 17:48:37 10° SSE 17:52:15 65° ENE 17:55:56 10° N
CZ-2D R/B 3.3 17:48:07 10° SSE 17:52:16 83° ENE 17:56:30 10° NNW
IRAS Rocket 4.1 17:47:12 10° SSE 17:52:44 76° ENE 17:58:16 10° NNW
Sich 1 Rocket 4.0 17:48:56 10° SSE 17:53:08 39° E 17:53:29 38° E
Cosmos 2082 Rocket 2.2 17:47:29 10° NNW 17:53:08 86° WSW 17:58:46 10° SSE
PSLV R/B 3.3 17:49:52 10° SSE 17:53:51 62° ENE 17:57:51 10° N
Cosmos 2026 Rocket 4.2 17:51:35 10° N 17:57:24 45° ENE 18:03:15 10° SE
Cosmos 1072 Rocket 4.3 17:52:03 10° S 17:58:10 72° E 18:04:15 10° NNE
Cosmos 2278 Rocket 2.1 17:52:58 10° SSW 17:58:38 87° ESE 18:02:46 19° NNE
NOAA 6 4.0 17:55:34 10° SSE 18:00:36 59° ENE 18:05:40 10° N
BREEZE-M DEB (TANK) 3.5 17:58:39 10° SW 18:01:31 51° SSE 18:03:16 36° E
Aureole 3 Rocket 2.5 17:58:37 10° SSW 18:01:37 65° WNW 18:03:12 27° N
BREEZE-M DEB (TANK) 3.0 17:59:43 10° WSW 18:02:24 74° SSE 18:04:09 39° E
SL-16 R/B 4.2 17:59:32 10° N 18:04:58 32° WNW 18:10:22 10° WSW
Geosat 3.9 18:04:10 32° SE 18:06:24 64° NE 18:11:23 10° NNW
Cosmos 2251 Rocket 3.4 18:04:09 10° SSW 18:09:26 82° ESE 18:12:37 25° NNE
YAOGAN 1 2.5 18:07:28 10° SSE 18:11:44 85° WSW 18:16:01 10° NNW
Cosmos 371 Rocket 3.4 18:08:24 10° S 18:12:52 49° ESE 18:12:52 49° ESE
Cosmos 304 Rocket 3.8 18:09:31 10° S 18:13:57 52° ESE 18:13:57 52° ESE
Cosmos 841 Rocket 3.4 18:08:53 10° NNW 18:14:11 78° ENE 18:17:15 25° SSE
SJ 16-02 1.1 18:11:23 10° S 18:15:39 67° ESE 18:15:42 67° ESE
SL-19 R/B 4.1 18:10:45 10° SSE 18:15:58 82° WSW 18:21:15 10° NNW
Nadezhda 4 Rocket 4.1 18:13:13 10° NNW 18:19:32 80° W 18:25:45 10° S
CZ-4C R/B 3.7 18:15:45 10° WNW 18:20:11 26° N 18:22:35 21° NNE
ATLAS CENTAUR R/B 3.6 18:19:26 10° NNW 18:20:25 11° NNW 18:20:45 11° N
Cosmos 1862 3.8 18:18:24 10° NNW 18:21:57 52° W 18:25:29 10° S
Resurs 1-3 3.8 18:19:27 10° S 18:23:43 70° WSW 18:28:02 10° NNW
ATLAS 2AS CENTAUR R/B 2.8 18:17:29 10° NW 18:24:09 53° NE 18:25:35 45° ENE
COSMOS 2406 3.1 18:20:12 10° NNW 18:25:55 87° WSW 18:29:07 27° SSE
Cosmos 1627 Rocket 4.3 18:21:53 10° N 18:28:01 69° ENE 18:34:10 10° SSE
Cosmos 1656 Rocket 4.2 18:24:34 10° S 18:28:33 39° SSE 18:28:33 39° SSE
Cosmos 2195 Rocket 4.4 18:27:05 10° N 18:33:26 90° E 18:39:47 10° S
Okean 2 Rocket 3.2 18:32:37 10° SSW 18:36:59 70° WNW 18:37:52 53° NNW
Cosmos 1190 Rocket 4.2 18:35:06 10° SSW 18:40:23 69° WNW 18:42:26 37° N
Cosmos 2344 3.8 18:34:26 10° NW 18:42:16 87° NE 18:47:32 32° SE
Cosmos 676 Rocket 3.9 18:37:56 10° SSW 18:43:15 83° ESE 18:43:16 83° ESE
Resurs 01 Rocket 3.0 18:46:23 30° NNW 18:46:23 30° NNW 18:48:37 10° NNW
Meteor 2-3 Rocket 3.7 18:39:38 10° NNW 18:45:23 80° W 18:49:59 16° S
Cosmos 2297 Rocket 4.3 18:46:33 10° N 18:48:17 14° N 18:48:17 14° N
ISS -1.3 18:48:44 10° W 18:50:07 23° W 18:50:07 23° W
Cosmos 1954 Rocket 4.3 18:48:06 10° SW 18:53:21 66° WNW 18:54:18 54° NNW
COSMO-SKYMED 1 3.6 18:57:48 42° WNW 18:57:48 42° WNW 19:01:35 10° SW
USA 281 3.0 19:02:00 73° SE 19:02:40 84° ENE 19:09:17 10° NNW
Cosmos 1943 Rocket 4.0 19:29:36 10° W 19:34:13 25° NW 19:35:40 23° NNW
Cosmos 2278 Rocket 4.1 19:38:54 10° W 19:43:27 24° NW 19:44:37 23° NNW
SJ 16-02 4.2 19:51:09 10° W 19:52:17 14° W 19:52:17 14° W
CZ-4C R/B 4.3 20:04:58 10° NW 20:07:32 23° NNW 20:07:32 23° NNW
ATLAS 2AS CENTAUR R/B 3.8 20:08:35 10° NW 20:13:01 38° WNW 20:13:01 38° WNW
